Savanna, IL

10:26 PM CST on December 03, 2016 (GMT -0600)
Tri-Township

Weather History for KSFY - October, 2014

Change the Weather History Date:

Saturday, October 4, 2014

  Actual Average (KCWI) Record (KCWI)
Temperature  
Mean Temperature 44 °F -  
Max Temperature 50 °F 70 °F 88 °F (1969)
Min Temperature 37 °F 45 °F 28 °F (1989)
Degree Days  
Heating Degree Days 22    
Moisture  
Dew Point 31 °F    
Average Humidity 62    
Maximum Humidity 85    
Minimum Humidity 46    
Precipitation  
Precipitation 0.00 in - - ()
Sea Level Pressure  
Sea Level Pressure 29.77 in    
Wind  
Wind Speed 12 mph (West)    
Max Wind Speed 20 mph    
Max Gust Speed 26 mph    
Visibility 10 miles    
Events Rain    
Averages and records for this station are not official NWS values.
T = Trace of Precipitation, MM = Missing Value Source: NWS Daily Summary

Daily Weather History Graph

Daily Weather History Graph

Search for Another Location

Airport or City:

Trip Planner

Search our weather history database for the weather conditions in past years. The results will help you decide how hot, cold, wet, or windy it might be!

Date:

Astronomy

Oct. 04, 2014 Rise Set
Actual Time 7:00 AM CDT 6:36 PM CDT
Civil Twilight 6:32 AM CDT 7:04 PM CDT
Nautical Twilight 6:00 AM CDT 7:37 PM CDT
Astronomical Twilight 5:27 AM CDT 8:09 PM CDT
Moon 4:17 PM CDT 2:24 AM CDT
Length of Visible Light 12h 31m
Length of Day
11h 36m
Waxing Gibbous, 81% of the Moon is Illuminated
Oct 4
Waxing Gibbous
Oct 8
Full
Oct 15
Last Quarter
Oct 23
New
Oct 30
First Quarter

Hourly Weather History & Observations

Time (CDT) Temp. Windchill Dew Point Humidity Pressure Visibility Wind Dir Wind Speed Gust Speed Precip Events Conditions
12:15 AM 43.7 °F 36.6 °F 25.7 °F 49% 29.81 in 10.0 mi West 15.0 mph 21.9 mph N/A   Overcast
12:35 AM 43.5 °F 36.7 °F 26.2 °F 51% 29.81 in 10.0 mi West 13.8 mph 19.6 mph N/A   Overcast
12:55 AM 43.3 °F 36.8 °F 26.2 °F 51% 29.80 in 10.0 mi West 12.7 mph 21.9 mph N/A   Overcast
1:15 AM 43.2 °F 36.6 °F 26.6 °F 52% 29.79 in 10.0 mi West 12.7 mph 18.4 mph N/A   Overcast
1:35 AM 43.0 °F 36.8 °F 26.8 °F 53% 29.79 in 10.0 mi West 11.5 mph 19.6 mph N/A   Overcast
1:55 AM 42.6 °F 35.9 °F 26.6 °F 53% 29.79 in 10.0 mi West 12.7 mph 19.6 mph N/A   Mostly Cloudy
2:15 AM 41.9 °F 35.0 °F 26.4 °F 54% 29.79 in 10.0 mi West 12.7 mph 18.4 mph N/A   Scattered Clouds
2:35 AM 41.2 °F 35.5 °F 25.9 °F 55% 29.78 in 10.0 mi West 9.2 mph 19.6 mph N/A   Clear
2:55 AM 40.3 °F 33.4 °F 26.6 °F 58% 29.77 in 10.0 mi West 11.5 mph 17.3 mph N/A   Clear
3:15 AM 39.7 °F 31.9 °F 27.0 °F 60% 29.77 in 10.0 mi West 13.8 mph 18.4 mph N/A   Scattered Clouds
3:35 AM 39.2 °F 33.0 °F 27.1 °F 62% 29.76 in 10.0 mi West 9.2 mph 18.4 mph N/A   Scattered Clouds
3:55 AM 39.4 °F 31.4 °F 27.5 °F 62% 29.76 in 10.0 mi West 13.8 mph 20.7 mph N/A   Overcast
4:15 AM 39.2 °F 30.8 °F 28.8 °F 66% 29.76 in 10.0 mi West 15.0 mph 24.2 mph N/A   Overcast
4:35 AM 38.5 °F 32.7 °F 29.8 °F 71% 29.76 in 10.0 mi West 8.1 mph 21.9 mph N/A   Overcast
4:55 AM 38.3 °F 31.9 °F 30.2 °F 73% 29.75 in 10.0 mi West 9.2 mph 16.1 mph N/A Rain Light Rain
5:15 AM 38.3 °F 30.9 °F 30.9 °F 75% 29.75 in 10.0 mi West 11.5 mph 16.1 mph N/A   Overcast
5:35 AM 37.6 °F 33.1 °F 32.0 °F 80% 29.75 in 7.0 mi West 5.8 mph 19.6 mph N/A   Drizzle
5:55 AM 37.2 °F 31.2 °F 32.0 °F 81% 29.74 in 10.0 mi West 8.1 mph - N/A   Drizzle
6:15 AM 37.0 °F 29.3 °F 32.5 °F 84% 29.74 in 10.0 mi West 11.5 mph 20.7 mph N/A   Drizzle
6:35 AM 37.2 °F 30.0 °F 32.5 °F 83% 29.74 in 7.0 mi West 10.4 mph 19.6 mph N/A   Drizzle
6:55 AM 37.0 °F 30.4 °F 32.9 °F 85% 29.74 in 7.0 mi West 9.2 mph - N/A Rain Rain
7:15 AM 37.6 °F 28.8 °F 33.3 °F 84% 29.74 in 10.0 mi West 15.0 mph 23.0 mph N/A   Light Drizzle
7:35 AM 38.3 °F 30.9 °F 33.3 °F 82% 29.73 in 10.0 mi West 11.5 mph 19.6 mph N/A   Light Drizzle
7:55 AM 38.5 °F 30.3 °F 33.6 °F 83% 29.73 in 10.0 mi West 13.8 mph 20.7 mph N/A   Drizzle
8:15 AM 38.7 °F 30.9 °F 33.6 °F 82% 29.73 in 10.0 mi West 12.7 mph 20.7 mph N/A   Overcast
8:35 AM 39.2 °F 31.2 °F 33.8 °F 81% 29.73 in 10.0 mi West 13.8 mph 25.3 mph N/A   Light Drizzle
8:55 AM 39.7 °F 31.9 °F 33.8 °F 79% 29.74 in 10.0 mi West 13.8 mph 20.7 mph N/A   Overcast
9:15 AM 40.3 °F 32.6 °F 33.6 °F 77% 29.74 in 10.0 mi West 13.8 mph 23.0 mph N/A   Overcast
9:35 AM 41.0 °F 33.9 °F 33.3 °F 74% 29.75 in 10.0 mi West 12.7 mph 24.2 mph N/A   Overcast
9:55 AM 41.7 °F 34.4 °F 33.1 °F 71% 29.76 in 10.0 mi West 13.8 mph 23.0 mph N/A   Overcast
10:15 AM 42.6 °F 35.9 °F 33.3 °F 69% 29.76 in 10.0 mi WNW 12.7 mph 20.7 mph N/A   Overcast
10:35 AM 43.0 °F 34.8 °F 33.3 °F 69% 29.77 in 10.0 mi WNW 18.4 mph 25.3 mph N/A   Overcast
10:55 AM 43.9 °F 36.8 °F 33.6 °F 67% 29.77 in 10.0 mi WNW 15.0 mph 24.2 mph N/A   Overcast
11:15 AM 44.6 °F 37.8 °F 33.4 °F 65% 29.77 in 10.0 mi WNW 15.0 mph 21.9 mph N/A   Overcast
11:35 AM 45.1 °F 38.8 °F 33.8 °F 65% 29.77 in 10.0 mi WNW 13.8 mph 23.0 mph N/A   Overcast
11:55 AM 45.1 °F 38.8 °F 33.3 °F 63% 29.79 in 10.0 mi WNW 13.8 mph 21.9 mph N/A   Overcast
12:15 PM 45.5 °F 39.6 °F 33.4 °F 63% 29.79 in 10.0 mi WNW 12.7 mph 21.9 mph N/A   Overcast
12:35 PM 45.7 °F 38.6 °F 33.1 °F 61% 29.79 in 10.0 mi WNW 17.3 mph 23.0 mph N/A   Overcast
12:55 PM 46.2 °F 39.8 °F 33.3 °F 61% 29.79 in 10.0 mi West 15.0 mph 21.9 mph N/A   Overcast
1:15 PM 45.7 °F 40.6 °F 32.7 °F 61% 29.80 in 10.0 mi WNW 10.4 mph 19.6 mph N/A   Overcast
1:55 PM 47.7 °F - 32.5 °F 56% 29.79 in 10.0 mi West 11.5 mph 17.3 mph N/A   Overcast
2:15 PM 47.8 °F - 32.2 °F 55% 29.79 in 10.0 mi West 11.5 mph 20.7 mph N/A   Overcast
2:35 PM 47.8 °F - 31.6 °F 53% 29.79 in 10.0 mi WNW 12.7 mph 21.9 mph N/A   Overcast
2:55 PM 48.6 °F - 31.5 °F 52% 29.78 in 10.0 mi West 12.7 mph 20.7 mph N/A   Overcast
3:15 PM 48.7 °F - 31.1 °F 51% 29.78 in 10.0 mi WNW 15.0 mph 19.6 mph N/A   Overcast
3:35 PM 49.5 °F - 30.6 °F 48% 29.78 in 10.0 mi WNW 12.7 mph 21.9 mph N/A   Overcast
3:55 PM 50.2 °F - 31.1 °F 48% 29.78 in 10.0 mi West 13.8 mph 19.6 mph N/A   Overcast
4:15 PM 49.6 °F - 30.7 °F 48% 29.79 in 10.0 mi West 19.6 mph 26.5 mph N/A   Overcast
4:35 PM 50.2 °F - 30.9 °F 48% 29.79 in 10.0 mi West 12.7 mph 18.4 mph N/A   Mostly Cloudy
4:55 PM 50.4 °F - 30.4 °F 46% 29.79 in 10.0 mi WNW 12.7 mph 20.7 mph N/A   Overcast
5:15 PM 50.4 °F - 30.4 °F 46% 29.79 in 10.0 mi West 12.7 mph 21.9 mph N/A   Mostly Cloudy
5:35 PM 50.5 °F - 30.7 °F 47% 29.78 in 10.0 mi West 8.1 mph - N/A   Scattered Clouds
5:55 PM 49.5 °F - 30.7 °F 49% 29.78 in 10.0 mi West 8.1 mph 17.3 mph N/A   Clear
6:15 PM 49.3 °F - 31.1 °F 50% 29.78 in 10.0 mi West 9.2 mph - N/A   Clear
6:35 PM 49.1 °F - 30.7 °F 49% 29.78 in 10.0 mi West 9.2 mph - N/A   Clear
6:55 PM 48.2 °F - 31.1 °F 52% 29.78 in 10.0 mi West 8.1 mph - N/A   Clear
7:15 PM 47.7 °F - 32.0 °F 55% 29.78 in 10.0 mi West 4.6 mph - N/A   Clear
7:35 PM 47.3 °F - 32.0 °F 55% 29.78 in 10.0 mi West 4.6 mph - N/A   Clear
7:55 PM 46.6 °F - 32.0 °F 57% 29.78 in 10.0 mi West 3.5 mph - N/A   Clear
8:15 PM 46.0 °F 42.5 °F 32.0 °F 58% 29.78 in 10.0 mi WSW 6.9 mph - N/A   Clear
8:55 PM 46.0 °F 41.0 °F 32.0 °F 58% 29.78 in 10.0 mi WSW 10.4 mph - N/A   Scattered Clouds
9:15 PM 45.7 °F 40.6 °F 32.0 °F 59% 29.78 in 10.0 mi WSW 10.4 mph 18.4 mph N/A   Clear
9:35 PM 45.7 °F 40.6 °F 32.4 °F 60% 29.78 in 10.0 mi WSW 10.4 mph - N/A   Clear
9:55 PM 45.5 °F 40.8 °F 32.4 °F 60% 29.78 in 10.0 mi WSW 9.2 mph - N/A   Clear
10:15 PM 45.7 °F 40.2 °F 32.2 °F 59% 29.77 in 10.0 mi WSW 11.5 mph - N/A   Clear
10:35 PM 45.5 °F 40.8 °F 32.5 °F 61% 29.78 in 10.0 mi WSW 9.2 mph - N/A   Clear
10:55 PM 44.6 °F 41.4 °F 32.9 °F 64% 29.77 in 10.0 mi WSW 5.8 mph - N/A   Clear
11:15 PM 44.2 °F 41.0 °F 33.1 °F 65% 29.77 in 10.0 mi WSW 5.8 mph - N/A   Clear
11:35 PM 44.1 °F 40.8 °F 32.9 °F 65% 29.76 in 10.0 mi WSW 5.8 mph - N/A   Clear
11:55 PM 44.1 °F 40.8 °F 32.9 °F 65% 29.76 in 10.0 mi WSW 5.8 mph - N/A   Scattered Clouds